Zurück zum Katalog

STARLINK-38259

AktivKommunikationSSO
NORAD 100252·PAYLOAD·🇺🇸 United States

Gestartet Aug 8, 2026 von Vandenberg Space Force Base

Loading…

Nächste Überflüge (nächste 24 Stunden)

TLE

AktuellSource: Space-Track

Epoche: Sep 14, 2026, 13:20 UTC

1 A0252U 26181G   26257.55603167  .00250433  00000-0  16278-2 0  9995
2 A0252  97.2833 300.8408 0000526   7.7441 352.3832 15.75236588  6970

Verfolge STARLINK-38259 in Echtzeit mit AllMySat

Download on the App Store